Location: Albany
(35.0000°S, 118.0000°E)
Time: 03:45:23
(UTC-04:00)

Vanguard 3 - Visible Passes

Search period start: 24 October 2014 00:00
Search period end: 02 November 2014 23:00
Orbit: 508 x 3278 km, 33.3° (Epoch: 23 October)

Date Brightness Start Highest point End Pass type
(mag) Time Alt. Az. Time Alt. Az. Time Alt. Az.
24 Oct 11.3 08:27:53 10° WNW 08:34:18 13° NW 08:40:12 10° NNW visible
25 Oct 11.1 07:07:13 10° W 07:21:10 24° NW 07:33:38 10° N visible
27 Oct 11.3 06:55:37 10° W 07:07:56 20° NW 07:19:32 10° N visible
29 Oct 11.5 06:44:39 10° WNW 06:54:47 17° NW 07:04:43 10° NNW visible
